FW9226 Weather Reports


Display with metric or nautical units.
time (UTC)temp
F
wind
direction
speed
MPH
gust
MPH
rain 1hr
in
rain 24hr
in
rain mn
in
humidity
%
barometer
mb
20260903233004 67 84 2.0 7.0 0.00 0.00 0.00 46 1015.7
20260903232505 68 158 2.0 8.0 0.00 0.00 0.00 46 1015.8
20260903231504 67 167 2.0 11.0 0.00 0.00 0.00 45 1015.9
20260903231006 68 89 2.0 5.0 0.00 0.00 0.00 46 1015.8
20260903230504 68 245 2.0 5.0 0.00 0.00 0.00 45 1015.8
20260903230003 68 108 3.0 7.0 0.00 0.00 0.00 46 1015.8
20260903225505 68 134 3.0 9.0 0.00 0.00 0.00 45 1016.0
20260903225005 68 161 1.0 9.0 0.00 0.00 0.00 45 1016.0
20260903224504 68 304 2.0 6.0 0.00 0.00 0.00 46 1016.1
20260903224005 68 143 2.0 6.0 0.00 0.00 0.00 45 1016.0
20260903223504 68 103 1.0 6.0 0.00 0.00 0.00 46 1016.1
20260903222506 68 203 2.0 11.0 0.00 0.00 0.00 46 1016.2
20260903222006 68 128 2.0 11.0 0.00 0.00 0.00 46 1016.2
20260903221504 69 236 2.0 5.0 0.00 0.00 0.00 46 1016.2
20260903221004 68 243 2.0 7.0 0.00 0.00 0.00 46 1016.3
20260903220503 69 112 2.0 7.0 0.00 0.00 0.00 44 1016.3
20260903220011 69 248 2.0 7.0 0.00 0.00 0.00 46 1016.3
20260903215504 69 201 2.0 9.0 0.00 0.00 0.00 47 1016.4
20260903214507 68 233 3.0 7.0 0.00 0.00 0.00 45 1016.3
20260903213504 68 212 3.0 8.0 0.00 0.00 0.00 46 1016.3
20260903213008 68 137 3.0 6.0 0.00 0.00 0.00 47 1016.3
20260903212502 68 165 2.0 6.0 0.00 0.00 0.00 47 1016.3
20260903212005 68 226 2.0 7.0 0.00 0.00 0.00 46 1016.3
20260903211504 69 285 3.0 9.0 0.00 0.00 0.00 45 1016.3
20260903211005 68 226 3.0 9.0 0.00 0.00 0.00 47 1016.2
20260903210502 68 262 3.0 8.0 0.00 0.00 0.00 46 1016.3
20260903210010 68 227 3.0 10.0 0.00 0.00 0.00 45 1016.2
20260903205009 69 246 3.0 9.0 0.00 0.00 0.00 42 1016.3
20260903204459 69 279 3.0 11.0 0.00 0.00 0.00 41 1016.3
20260903204004 68 138 3.0 11.0 0.00 0.00 0.00 43 1016.3
20260903203007 70 114 2.0 8.0 0.00 0.00 0.00 41 1016.2
20260903202503 70 205 2.0 10.0 0.00 0.00 0.00 40 1016.4
20260903202009 70 251 2.0 10.0 0.00 0.00 0.00 40 1016.4
20260903201503 70 217 2.0 9.0 0.00 0.00 0.00 41 1016.5
20260903201004 70 219 2.0 9.0 0.00 0.00 0.00 40 1016.6
20260903200008 69 248 2.0 7.0 0.00 0.00 0.00 40 1016.5
20260903195500 69 243 2.0 7.0 0.00 0.00 0.00 41 1016.6
20260903195005 69 242 2.0 8.0 0.00 0.00 0.00 43 1016.5
20260903194504 69 139 3.0 8.0 0.00 0.00 0.00 43 1016.5
20260903194011 70 127 3.0 9.0 0.00 0.00 0.00 42 1016.5
20260903192502 70 253 3.0 8.0 0.00 0.00 0.00 43 1016.5
20260903192004 70 141 2.0 7.0 0.00 0.00 0.00 42 1016.6
20260903191505 70 226 2.0 6.0 0.00 0.00 0.00 41 1016.8
20260903190504 70 214 2.0 6.0 0.00 0.00 0.00 42 1017.0
20260903190006 70 128 2.0 6.0 0.00 0.00 0.00 42 1017.0
20260903185505 70 238 2.0 6.0 0.00 0.00 0.00 41 1017.0
20260903185008 70 134 2.0 6.0 0.00 0.00 0.00 42 1017.1
20260903184504 69 211 2.0 7.0 0.00 0.00 0.00 44 1017.0
20260903184009 69 101 2.0 9.0 0.00 0.00 0.00 43 1017.0
20260903183501 69 56 2.0 9.0 0.00 0.00 0.00 45 1017.1
20260903183006 69 202 2.0 8.0 0.00 0.00 0.00 45 1017.1
20260903182506 68 168 2.0 7.0 0.00 0.00 0.00 46 1017.2
20260903182004 67 139 3.0 10.0 0.00 0.00 0.00 46 1017.1
20260903181005 67 63 2.0 8.0 0.00 0.00 0.00 47 1017.1
20260903180504 68 146 2.0 6.0 0.00 0.00 0.00 47 1017.1
20260903180008 67 134 2.0 7.0 0.00 0.00 0.00 48 1017.1
20260903175500 67 104 1.0 7.0 0.00 0.00 0.00 48 1017.1
20260903175003 67 119 1.0 5.0 0.00 0.00 0.00 49 1016.9
20260903174503 66 155 2.0 5.0 0.00 0.00 0.00 50 1017.0
20260903174004 66 116 2.0 5.0 0.00 0.00 0.00 49 1017.0
20260903173504 66 96 2.0 8.0 0.00 0.00 0.00 50 1017.0
20260903172459 66 185 2.0 6.0 0.00 0.00 0.00 49 1017.2
20260903172005 65 47 2.0 6.0 0.00 0.00 0.00 52 1017.2
20260903171504 65 143 2.0 6.0 0.00 0.00 0.00 49 1017.3
20260903171005 65 214 1.0 4.0 0.00 0.00 0.00 51 1017.3
20260903170503 64 183 1.0 6.0 0.00 0.00 0.00 53 1017.4
20260903170003 64 123 1.0 6.0 0.00 0.00 0.00 53 1017.4
20260903165502 64 277 2.0 5.0 0.00 0.00 0.00 54 1017.4
20260903165004 64 158 2.0 5.0 0.00 0.00 0.00 54 1017.4
20260903164503 64 221 2.0 9.0 0.00 0.00 0.00 54 1017.4
20260903164002 64 170 2.0 9.0 0.00 0.00 0.00 55 1017.4
20260903163503 63 131 2.0 4.0 0.00 0.00 0.00 56 1017.4
20260903163004 63 184 2.0 4.0 0.00 0.00 0.00 56 1017.4
20260903162504 62 233 2.0 6.0 0.00 0.00 0.00 57 1017.4
20260903160504 61 126 1.0 4.0 0.00 0.00 0.00 59 1017.5
20260903160008 60 150 1.0 3.0 0.00 0.00 0.00 59 1017.4
20260903155506 59 136 1.0 2.0 0.00 0.00 0.00 61 1017.5
20260903155005 58 207 0.0 2.0 0.00 0.00 0.00 62 1017.6
20260903154503 58 115 1.0 2.0 0.00 0.00 0.00 63 1017.5
20260903154004 57 145 1.0 2.0 0.00 0.00 0.00 64 1017.5
20260903153503 56 146 0.0 2.0 0.00 0.00 0.00 64 1017.6
20260903153005 56 155 0.0 2.0 0.00 0.00 0.00 66 1017.6
20260903152004 55 38 0.0 1.0 0.00 0.00 0.00 66 1017.6
20260903151003 54 325 0.0 0.0 0.00 0.00 0.00 66 1017.6
20260903150501 54 325 0.0 0.0 0.00 0.00 0.00 65 1017.6
20260903150001 54 325 0.0 0.0 0.00 0.00 0.00 64 1017.5
20260903145503 54 325 0.0 0.0 0.00 0.00 0.00 64 1017.5
20260903145004 54 325 0.0 0.0 0.00 0.00 0.00 63 1017.5
20260903144005 54 325 0.0 0.0 0.00 0.00 0.00 61 1017.4
20260903143000 54 322 0.0 0.0 0.00 0.00 0.00 62 1017.4
20260903142504 53 322 0.0 1.0 0.00 0.00 0.00 63 1017.4
20260903142006 52 32 0.0 1.0 0.00 0.00 0.00 65 1017.4
20260903141503 51 32 0.0 1.0 0.00 0.00 0.00 67 1017.3
20260903141004 50 32 0.0 1.0 0.00 0.00 0.00 67 1017.3
20260903140502 50 280 0.0 0.0 0.00 0.00 0.00 67 1017.2
20260903140008 50 280 0.0 1.0 0.00 0.00 0.00 67 1017.2
20260903135004 50 281 0.0 1.0 0.00 0.00 0.00 67 1017.1
20260903134459 50 281 0.0 1.0 0.00 0.00 0.00 67 1017.0
20260903134003 50 281 0.0 1.0 0.00 0.00 0.00 68 1017.0
20260903133500 50 281 0.0 0.0 0.00 0.00 0.00 68 1016.9
20260903133005 50 281 0.0 1.0 0.00 0.00 0.00 68 1017.0
20260903132004 51 280 0.0 0.0 0.00 0.00 0.00 68 1016.9
20260903131503 51 281 0.0 1.0 0.00 0.00 0.00 67 1017.0
20260903131003 51 280 0.0 1.0 0.00 0.00 0.00 68 1016.9
20260903130506 51 281 0.0 1.0 0.00 0.00 0.00 68 1016.9
20260903130006 50 280 0.0 0.0 0.00 0.00 0.00 68 1016.9
20260903124504 51 281 0.0 1.0 0.00 0.00 0.00 68 1017.0
20260903123503 50 282 0.0 1.0 0.00 0.00 0.00 69 1017.1
20260903123005 50 281 0.0 1.0 0.00 0.00 0.00 70 1017.1
20260903122502 50 281 0.0 1.0 0.00 0.00 0.00 70 1017.2
20260903122003 50 283 0.0 1.0 0.00 0.00 0.00 70 1017.2
20260903121504 50 283 0.0 1.0 0.00 0.00 0.00 70 1017.3
20260903121001 50 283 0.0 1.0 0.00 0.00 0.00 70 1017.3
20260903120503 50 283 0.0 0.0 0.00 0.00 0.00 69 1017.4
20260903120006 51 283 0.0 0.0 0.00 0.00 0.00 69 1017.4
20260903115459 51 285 0.0 0.0 0.00 0.00 0.00 69 1017.5
20260903115007 51 285 0.0 1.0 0.00 0.00 0.00 69 1017.5
20260903113959 51 288 0.0 1.0 0.00 0.00 0.00 70 1017.5
20260903113503 50 290 0.0 1.0 0.00 0.00 0.00 71 1017.5
20260903113007 50 290 0.0 1.0 0.00 0.00 0.00 71 1017.6
20260903112502 50 291 0.0 1.0 0.00 0.00 0.00 71 1017.6
20260903112007 50 291 0.0 0.0 0.00 0.00 0.00 71 1017.6
20260903111007 50 292 0.0 0.0 0.00 0.00 0.00 71 1017.8
20260903110008 51 291 0.0 1.0 0.00 0.00 0.00 70 1017.8
20260903105506 51 292 0.0 1.0 0.00 0.00 0.00 71 1017.8
20260903105008 50 291 0.0 1.0 0.00 0.00 0.00 71 1017.8
20260903104504 51 293 0.0 0.0 0.00 0.00 0.00 71 1017.9
20260903104006 51 293 0.0 1.0 0.00 0.00 0.00 71 1017.9
20260903103502 50 293 0.0 1.0 0.00 0.00 0.00 71 1018.0
20260903103005 50 293 0.0 1.0 0.00 0.00 0.00 72 1018.0
20260903102504 50 293 0.0 1.0 0.00 0.00 0.00 72 1018.1
20260903102006 50 293 0.0 1.0 0.00 0.00 0.00 73 1018.0
20260903101503 50 293 0.0 1.0 0.00 0.00 0.00 73 1018.1
20260903101004 50 291 0.0 1.0 0.00 0.00 0.00 73 1018.1
20260903100503 50 291 0.0 0.0 0.00 0.00 0.00 74 1018.1
20260903100007 50 291 0.0 0.0 0.00 0.00 0.00 74 1018.1
20260903094503 50 291 0.0 0.0 0.00 0.00 0.00 73 1018.1
20260903094002 50 291 0.0 0.0 0.00 0.00 0.00 74 1018.1
20260903093504 49 291 0.0 0.0 0.00 0.00 0.00 74 1018.1
20260903093004 49 291 0.0 0.0 0.00 0.00 0.00 74 1018.2
20260903092006 50 291 0.0 1.0 0.00 0.00 0.00 73 1018.3
20260903091503 50 280 0.0 0.0 0.00 0.00 0.00 73 1018.4
20260903091005 50 280 0.0 0.0 0.00 0.00 0.00 73 1018.3
20260903090007 50 280 0.0 1.0 0.00 0.00 0.00 73 1018.3
20260903085503 50 280 0.0 0.0 0.00 0.00 0.00 73 1018.3
20260903085003 50 280 0.0 0.0 0.00 0.00 0.00 73 1018.3
20260903084507 50 280 0.0 0.0 0.00 0.00 0.00 72 1018.4
20260903084004 51 280 0.0 0.0 0.00 0.00 0.00 71 1018.5
20260903082503 52 280 0.0 1.0 0.00 0.00 0.00 70 1018.4
20260903082004 52 280 0.0 1.0 0.00 0.00 0.00 70 1018.4
20260903081503 51 280 0.0 1.0 0.00 0.00 0.00 71 1018.5
20260903081007 51 280 0.0 0.0 0.00 0.00 0.00 71 1018.5
20260903080504 52 280 0.0 1.0 0.00 0.00 0.00 71 1018.5
20260903075959 52 280 0.0 1.0 0.00 0.00 0.00 71 1018.5
20260903075500 52 280 0.0 1.0 0.00 0.00 0.00 71 1018.6
20260903074503 51 281 0.0 1.0 0.00 0.00 0.00 71 1018.5
20260903074002 51 219 0.0 1.0 0.00 0.00 0.00 72 1018.4
20260903073502 51 219 0.0 1.0 0.00 0.00 0.00 72 1018.4
20260903072959 51 219 0.0 0.0 0.00 0.00 0.00 71 1018.5
20260903072502 51 219 0.0 0.0 0.00 0.00 0.00 71 1018.5
20260903071958 51 195 0.0 0.0 0.00 0.00 0.00 72 1018.5
20260903071006 51 191 0.0 0.0 0.00 0.00 0.00 73 1018.5
20260903070500 51 191 0.0 0.0 0.00 0.00 0.00 74 1018.5
20260903065006 51 191 0.0 0.0 0.00 0.00 0.00 74 1018.5
20260903064504 50 191 0.0 0.0 0.00 0.00 0.00 75 1018.6
20260903064005 51 191 0.0 0.0 0.00 0.00 0.00 75 1018.6
20260903063005 51 191 0.0 0.0 0.00 0.00 0.00 75 1018.6
20260903062503 51 191 0.0 0.0 0.00 0.00 0.00 75 1018.6
20260903062003 51 191 0.0 0.0 0.00 0.00 0.00 76 1018.7
20260903061005 51 191 0.0 0.0 0.00 0.00 0.00 75 1018.7
20260903060504 52 191 0.0 0.0 0.00 0.00 0.00 75 1018.7
20260903060008 52 191 0.0 0.0 0.00 0.00 0.00 74 1018.8
20260903055504 52 191 0.0 0.0 0.00 0.00 0.00 74 1018.8
20260903055004 52 191 0.0 0.0 0.00 0.00 0.00 74 1018.7
20260903054503 52 191 0.0 0.0 0.00 0.00 0.00 75 1018.7
20260903054003 52 191 0.0 0.0 0.00 0.00 0.00 76 1018.7
20260903053505 52 191 0.0 0.0 0.00 0.00 0.00 76 1018.8
20260903053004 52 191 0.0 0.0 0.00 0.00 0.00 77 1018.9
20260903052005 51 191 0.0 0.0 0.00 0.00 0.00 79 1018.9
20260903051500 52 191 0.0 0.0 0.00 0.00 0.00 79 1019.0
20260903051004 51 191 0.0 0.0 0.00 0.00 0.00 79 1018.9
20260903050007 51 191 0.0 0.0 0.00 0.00 0.00 80 1019.0
20260903045504 51 191 0.0 0.0 0.00 0.00 0.00 80 1019.0
20260903045004 51 191 0.0 0.0 0.00 0.00 0.00 79 1019.0
20260903044004 52 191 0.0 0.0 0.00 0.00 0.00 78 1019.0
20260903043503 52 191 0.0 0.0 0.00 0.00 0.00 78 1019.1
20260903043004 52 191 0.0 0.0 0.00 0.00 0.00 78 1019.1
20260903042006 52 191 0.0 0.0 0.00 0.00 0.00 77 1019.1
20260903041504 53 191 0.0 0.0 0.00 0.00 0.00 77 1019.0
20260903040504 53 191 0.0 0.0 0.00 0.00 0.00 77 1019.1
20260903040008 53 191 0.0 0.0 0.00 0.00 0.00 77 1019.1
20260903035505 53 191 0.0 0.0 0.00 0.00 0.00 76 1019.1
20260903035002 53 191 0.0 0.0 0.00 0.00 0.00 76 1019.1
20260903034503 54 191 0.0 0.0 0.00 0.00 0.00 75 1019.0
20260903034005 54 191 0.0 0.0 0.00 0.00 0.00 75 1018.9
20260903033503 54 191 0.0 0.0 0.00 0.00 0.00 75 1018.9
20260903033006 54 191 0.0 0.0 0.00 0.00 0.00 74 1018.8
20260903032503 55 191 0.0 0.0 0.00 0.00 0.00 73 1018.8
20260903032004 55 191 0.0 0.0 0.00 0.00 0.00 72 1018.7
20260903031504 55 191 0.0 0.0 0.00 0.00 0.00 72 1018.7
20260903031005 55 191 0.0 0.0 0.00 0.00 0.00 72 1018.7
20260903030503 55 191 0.0 0.0 0.00 0.00 0.00 71 1018.7
20260903030006 56 191 0.0 0.0 0.00 0.00 0.00 70 1018.6
20260903025504 56 191 0.0 0.0 0.00 0.00 0.00 69 1018.6
20260903025006 56 191 0.0 0.0 0.00 0.00 0.00 68 1018.6
20260903023503 58 191 0.0 0.0 0.00 0.00 0.00 66 1018.6
20260903023005 58 191 0.0 0.0 0.00 0.00 0.00 65 1018.7
20260903022504 58 191 0.0 0.0 0.00 0.00 0.00 64 1018.7
20260903022003 59 191 0.0 0.0 0.00 0.00 0.00 63 1018.7
20260903021505 59 79 0.0 1.0 0.00 0.00 0.00 62 1018.8
20260903021004 59 80 0.0 1.0 0.00 0.00 0.00 62 1018.8
20260903020504 59 75 0.0 1.0 0.00 0.00 0.00 60 1018.8
20260903020007 60 75 0.0 1.0 0.00 0.00 0.00 60 1018.8
20260903015504 60 164 0.0 0.0 0.00 0.00 0.00 58 1018.9
20260903015004 60 164 0.0 2.0 0.00 0.00 0.00 58 1019.0
20260903014004 61 270 0.0 5.0 0.00 0.00 0.00 56 1018.9
20260903013503 61 86 0.0 2.0 0.00 0.00 0.00 55 1018.9
20260903012503 61 124 0.0 2.0 0.00 0.00 0.00 51 1018.9
20260903012003 62 123 0.0 2.0 0.00 0.00 0.00 50 1018.9
20260903011502 62 88 1.0 4.0 0.00 0.00 0.00 51 1018.9
20260903011004 62 160 1.0 4.0 0.00 0.00 0.00 49 1018.9
20260903010504 62 172 1.0 4.0 0.00 0.00 0.00 48 1018.9
20260903010002 62 175 1.0 4.0 0.00 0.00 0.00 47 1019.0
20260903005504 63 235 1.0 4.0 0.00 0.00 0.00 47 1018.9
20260903004504 63 167 1.0 4.0 0.00 0.00 0.00 45 1018.9
20260903004004 63 155 0.0 4.0 0.00 0.00 0.00 45 1019.0
20260903003504 63 256 1.0 5.0 0.00 0.00 0.00 45 1019.0
20260903003005 63 91 1.0 5.0 0.00 0.00 0.00 44 1019.1
20260903002503 64 205 1.0 7.0 0.00 0.00 0.00 44 1019.1
20260903002004 64 233 1.0 7.0 0.00 0.00 0.00 44 1019.1
20260903001004 65 163 1.0 6.0 0.00 0.00 0.00 43 1019.1
20260903000501 66 190 1.0 9.0 0.00 0.00 0.00 42 1019.1
20260902235505 67 203 2.0 7.0 0.00 0.00 0.00 41 1019.1
20260902235006 67 214 2.0 9.0 0.00 0.00 0.00 40 1019.2
20260902234503 69 108 1.0 4.0 0.00 0.00 0.00 39 1019.2